Saint Bonnet de Bellac- Haute Vienne - France
Donnes mto: lundi / mardi, 15/09/2009
Date Horaire Temp. E. Hum. E. P.atmo. Pluie Vent Direction Direction Ensoleilleme Solaire P. de rose Temp au vent Rafales
14/09/2009 16:00 17,6 C 54 % 1017,7 hPa 0,0 mm 6,8 km/h (2 Bft) E 90 0 min 0 W/m 8,2 C 17,6 C 6,8 km/h (2 Bft)
14/09/2009 16:05 17,8 C 53 % 1017,6 hPa 0,0 mm 9,0 km/h (2 Bft) N-NE 22 0 min 0 W/m 8,1 C 17,8 C 9,0 km/h (2 Bft)
14/09/2009 16:10 17,8 C 53 % 1017,6 hPa 0,0 mm 5,0 km/h (1 Bft) NE 45 0 min 0 W/m 8,1 C 17,8 C 9,7 km/h (2 Bft)
14/09/2009 16:15 17,8 C 53 % 1017,6 hPa 0,0 mm 9,0 km/h (2 Bft) NE 45 0 min 0 W/m 8,1 C 17,8 C 13,0 km/h (3 Bft)
14/09/2009 16:20 17,8 C 53 % 1017,7 hPa 0,0 mm 8,6 km/h (2 Bft) NE 45 0 min 0 W/m 8,1 C 17,8 C 16,9 km/h (3 Bft)
14/09/2009 16:25 17,8 C 52 % 1017,6 hPa 0,0 mm 7,6 km/h (2 Bft) N-NE 22 0 min 0 W/m 7,8 C 17,8 C 14,4 km/h (3 Bft)
14/09/2009 16:30 17,8 C 52 % 1017,6 hPa 0,0 mm 11,2 km/h (2 Bft) NE 45 0 min 0 W/m 7,8 C 17,8 C 14,4 km/h (3 Bft)
14/09/2009 16:35 17,6 C 52 % 1017,5 hPa 0,0 mm 6,5 km/h (2 Bft) N 360 0 min 0 W/m 7,6 C 17,6 C 10,1 km/h (2 Bft)
14/09/2009 16:40 17,5 C 51 % 1017,6 hPa 0,0 mm 10,8 km/h (2 Bft) NE 45 0 min 0 W/m 7,3 C 17,5 C 15,5 km/h (3 Bft)
14/09/2009 16:45 17,4 C 52 % 1017,5 hPa 0,0 mm 10,8 km/h (2 Bft) NE 45 0 min 0 W/m 7,4 C 17,4 C 10,8 km/h (2 Bft)
14/09/2009 16:50 17,4 C 52 % 1017,5 hPa 0,0 mm 6,5 km/h (2 Bft) E-NE 67 0 min 0 W/m 7,4 C 17,4 C 7,6 km/h (2 Bft)
14/09/2009 16:55 17,4 C 53 % 1017,5 hPa 0,0 mm 8,6 km/h (2 Bft) E-NE 67 0 min 0 W/m 7,7 C 17,4 C 13,3 km/h (3 Bft)
14/09/2009 17:00 17,4 C 53 % 1017,4 hPa 0,0 mm 5,8 km/h (2 Bft) NE 45 0 min 0 W/m 7,7 C 17,4 C 11,2 km/h (2 Bft)
14/09/2009 17:05 17,5 C 53 % 1017,4 hPa 0,0 mm 14,0 km/h (3 Bft) N 360 0 min 0 W/m 7,8 C 17,5 C 14,0 km/h (3 Bft)
14/09/2009 17:10 17,6 C 53 % 1017,4 hPa 0,0 mm 11,9 km/h (2 Bft) N-NE 22 0 min 0 W/m 7,9 C 17,6 C 20,2 km/h (4 Bft)
14/09/2009 17:15 17,8 C 53 % 1017,4 hPa 0,0 mm 9,0 km/h (2 Bft) N 360 0 min 0 W/m 8,1 C 17,8 C 12,2 km/h (2 Bft)
14/09/2009 17:20 17,8 C 53 % 1017,2 hPa 0,0 mm 8,3 km/h (2 Bft) N-NE 22 0 min 0 W/m 8,1 C 17,8 C 12,2 km/h (2 Bft)
14/09/2009 17:25 17,9 C 53 % 1017,2 hPa 0,0 mm 9,7 km/h (2 Bft) E-NE 67 0 min 0 W/m 8,2 C 17,9 C 13,7 km/h (3 Bft)
14/09/2009 17:30 18,0 C 53 % 1017,1 hPa 0,0 mm 7,6 km/h (2 Bft) N 360 0 min 0 W/m 8,3 C 18,0 C 10,1 km/h (2 Bft)
14/09/2009 17:35 18,0 C 53 % 1017,2 hPa 0,0 mm 3,2 km/h (1 Bft) NE 45 0 min 0 W/m 8,3 C 18,0 C 6,8 km/h (2 Bft)
14/09/2009 17:40 18,1 C 53 % 1017,1 hPa 0,0 mm 4,7 km/h (1 Bft) N 360 0 min 0 W/m 8,4 C 18,1 C 9,0 km/h (2 Bft)
14/09/2009 17:45 18,1 C 53 % 1017,1 hPa 0,0 mm 6,5 km/h (2 Bft) N-NE 22 0 min 0 W/m 8,4 C 18,1 C 8,3 km/h (2 Bft)
14/09/2009 17:50 18,1 C 53 % 1017,1 hPa 0,0 mm 3,2 km/h (1 Bft) N-NE 22 0 min 0 W/m 8,4 C 18,1 C 6,5 km/h (2 Bft)
14/09/2009 17:55 18,1 C 53 % 1017,1 hPa 0,0 mm 3,6 km/h (1 Bft) N-NO 337 0 min 0 W/m 8,4 C 18,1 C 3,6 km/h (1 Bft)
14/09/2009 18:00 18,3 C 53 % 1016,9 hPa 0,0 mm 9,0 km/h (2 Bft) NO 315 0 min 0 W/m 8,6 C 18,3 C 9,0 km/h (2 Bft)
14/09/2009 18:05 18,3 C 52 % 1016,9 hPa 0,0 mm 10,1 km/h (2 Bft) N-NE 22 0 min 0 W/m 8,3 C 18,3 C 12,6 km/h (3 Bft)
14/09/2009 18:10 18,2 C 53 % 1016,9 hPa 0,0 mm 9,4 km/h (2 Bft) E-NE 67 0 min 0 W/m 8,5 C 18,2 C 13,7 km/h (3 Bft)
14/09/2009 18:15 18,2 C 54 % 1016,9 hPa 0,0 mm 6,8 km/h (2 Bft) N-NE 22 0 min 0 W/m 8,7 C 18,2 C 11,2 km/h (2 Bft)
14/09/2009 18:20 18,2 C 53 % 1016,8 hPa 0,0 mm 3,6 km/h (1 Bft) E-NE 67 0 min 0 W/m 8,5 C 18,2 C 3,6 km/h (1 Bft)
14/09/2009 18:25 18,2 C 53 % 1016,8 hPa 0,0 mm 4,3 km/h (1 Bft) E-NE 67 0 min 0 W/m 8,5 C 18,2 C 11,5 km/h (2 Bft)
14/09/2009 18:30 18,2 C 53 % 1016,9 hPa 0,0 mm 2,2 km/h (1 Bft) N-NE 22 0 min 0 W/m 8,5 C 18,2 C 3,2 km/h (1 Bft)
14/09/2009 18:35 18,2 C 53 % 1016,8 hPa 0,0 mm 7,6 km/h (2 Bft) N 360 0 min 0 W/m 8,5 C 18,2 C 13,3 km/h (3 Bft)
14/09/2009 18:40 17,9 C 53 % 1016,8 hPa 0,0 mm 6,8 km/h (2 Bft) N-NE 22 0 min 0 W/m 8,2 C 17,9 C 12,2 km/h (2 Bft)
14/09/2009 18:45 17,8 C 53 % 1016,8 hPa 0,0 mm 9,0 km/h (2 Bft) N-NE 22 0 min 0 W/m 8,1 C 17,8 C 10,1 km/h (2 Bft)
14/09/2009 18:50 17,5 C 53 % 1016,8 hPa 0,0 mm 5,4 km/h (2 Bft) N-NE 22 0 min 0 W/m 7,8 C 17,5 C 7,2 km/h (2 Bft)
14/09/2009 18:55 17,3 C 53 % 1016,7 hPa 0,0 mm 8,3 km/h (2 Bft) NE 45 0 min 0 W/m 7,6 C 17,3 C 11,5 km/h (2 Bft)
14/09/2009 19:00 17,2 C 54 % 1016,7 hPa 0,0 mm 4,7 km/h (1 Bft) N-NE 22 0 min 0 W/m 7,8 C 17,2 C 10,1 km/h (2 Bft)
14/09/2009 19:05 17,0 C 54 % 1016,7 hPa 0,0 mm 5,0 km/h (1 Bft) N-NE 22 0 min 0 W/m 7,6 C 17,0 C 7,2 km/h (2 Bft)
14/09/2009 19:10 16,9 C 55 % 1016,7 hPa 0,0 mm 8,3 km/h (2 Bft) NE 45 0 min 0 W/m 7,8 C 16,9 C 13,3 km/h (3 Bft)
14/09/2009 19:15 16,9 C 55 % 1016,7 hPa 0,0 mm 9,7 km/h (2 Bft) E-NE 67 0 min 0 W/m 7,8 C 16,9 C 20,2 km/h (4 Bft)
14/09/2009 19:20 16,9 C 55 % 1016,7 hPa 0,0 mm 10,1 km/h (2 Bft) NE 45 0 min 0 W/m 7,8 C 16,9 C 13,7 km/h (3 Bft)
14/09/2009 19:25 16,8 C 55 % 1016,7 hPa 0,0 mm 4,7 km/h (1 Bft) N-NE 22 0 min 0 W/m 7,7 C 16,8 C 4,7 km/h (1 Bft)
14/09/2009 19:30 16,8 C 55 % 1016,7 hPa 0,0 mm 11,9 km/h (2 Bft) N-NE 22 0 min 0 W/m 7,7 C 16,8 C 16,9 km/h (3 Bft)
14/09/2009 19:35 16,6 C 56 % 1016,8 hPa 0,0 mm 4,7 km/h (1 Bft) NE 45 0 min 0 W/m 7,8 C 16,6 C 10,8 km/h (2 Bft)
14/09/2009 19:40 16,4 C 56 % 1016,8 hPa 0,0 mm 2,2 km/h (1 Bft) NE 45 0 min 0 W/m 7,6 C 16,4 C 7,9 km/h (2 Bft)
14/09/2009 19:45 16,3 C 56 % 1016,8 hPa 0,0 mm 2,5 km/h (1 Bft) NE 45 0 min 0 W/m 7,5 C 16,3 C 3,6 km/h (1 Bft)
14/09/2009 19:50 16,1 C 57 % 1016,8 hPa 0,0 mm 2,9 km/h (1 Bft) NE 45 2 min 0 W/m 7,6 C 16,1 C 4,0 km/h (1 Bft)
14/09/2009 19:55 15,9 C 57 % 1016,9 hPa 0,0 mm 2,2 km/h (1 Bft) E-NE 67 2 min 0 W/m 7,4 C 15,9 C 4,0 km/h (1 Bft)
14/09/2009 20:00 15,7 C 58 % 1016,9 hPa 0,0 mm 2,9 km/h (1 Bft) N 360 0 min 0 W/m 7,5 C 15,7 C 4,0 km/h (1 Bft)
14/09/2009 20:05 15,5 C 58 % 1016,9 hPa 0,0 mm 2,9 km/h (1 Bft) N 360 0 min 0 W/m 7,3 C 15,5 C 3,6 km/h (1 Bft)
14/09/2009 20:10 15,3 C 58 % 1016,9 hPa 0,0 mm 0,0 km/h (0 Bft) E-NE 67 0 min 0 W/m 7,1 C 15,3 C 0,0 km/h (0 Bft)
14/09/2009 20:15 15,1 C 59 % 1016,9 hPa 0,0 mm 1,1 km/h (1 Bft) N-NE 22 0 min 0 W/m 7,1 C 15,1 C 3,2 km/h (1 Bft)
14/09/2009 20:20 14,8 C 59 % 1016,9 hPa 0,0 mm 1,8 km/h (1 Bft) E-NE 67 0 min 0 W/m 6,9 C 14,8 C 3,2 km/h (1 Bft)
14/09/2009 20:25 14,6 C 60 % 1016,9 hPa 0,0 mm 0,7 km/h (0 Bft) N 360 0 min 0 W/m 6,9 C 14,6 C 0,7 km/h (0 Bft)
14/09/2009 20:30 14,4 C 60 % 1016,9 hPa 0,0 mm 0,7 km/h (0 Bft) NE 45 0 min 0 W/m 6,7 C 14,4 C 0,7 km/h (0 Bft)
14/09/2009 20:35 14,2 C 61 % 1016,9 hPa 0,0 mm 0,4 km/h (0 Bft) N 360 0 min 0 W/m 6,8 C 14,2 C 4,3 km/h (1 Bft)
14/09/2009 20:40 13,9 C 61 % 1016,9 hPa 0,0 mm 0,0 km/h (0 Bft) N 360 0 min 0 W/m 6,5 C 13,9 C 0,0 km/h (0 Bft)
14/09/2009 20:45 13,7 C 62 % 1016,9 hPa 0,0 mm 0,0 km/h (0 Bft) N 360 0 min 0 W/m 6,6 C 13,7 C 0,0 km/h (0 Bft)
14/09/2009 20:50 13,5 C 63 % 1016,9 hPa 0,0 mm 0,7 km/h (0 Bft) N-NO 337 0 min 0 W/m 6,6 C 13,5 C 3,6 km/h (1 Bft)
14/09/2009 20:55 13,3 C 64 % 1017,0 hPa 0,0 mm 1,4 km/h (1 Bft) N-NE 22 0 min 0 W/m 6,6 C 13,3 C 4,0 km/h (1 Bft)
14/09/2009 21:00 13,2 C 64 % 1017,0 hPa 0,0 mm 0,7 km/h (0 Bft) N-NE 22 0 min 0 W/m 6,5 C 13,2 C 4,0 km/h (1 Bft)
14/09/2009 21:05 13,0 C 64 % 1017,1 hPa 0,0 mm 0,0 km/h (0 Bft) N 360 0 min 0 W/m 6,4 C 13,0 C 3,2 km/h (1 Bft)
14/09/2009 21:10 12,8 C 64 % 1017,2 hPa 0,0 mm 0,0 km/h (0 Bft) N-NE 22 0 min 0 W/m 6,2 C 12,8 C 0,0 km/h (0 Bft)
14/09/2009 21:15 12,7 C 64 % 1017,2 hPa 0,0 mm 0,0 km/h (0 Bft) N-NE 22 0 min 0 W/m 6,1 C 12,7 C 0,0 km/h (0 Bft)
14/09/2009 21:20 12,5 C 65 % 1017,2 hPa 0,0 mm 0,0 km/h (0 Bft) N 360 0 min 0 W/m 6,1 C 12,5 C 0,0 km/h (0 Bft)
14/09/2009 21:25 12,4 C 66 % 1017,2 hPa 0,0 mm 0,0 km/h (0 Bft) N-NE 22 0 min 0 W/m 6,2 C 12,4 C 0,0 km/h (0 Bft)
14/09/2009 21:30 12,2 C 66 % 1017,2 hPa 0,0 mm 0,0 km/h (0 Bft) N-NE 22 0 min 0 W/m 6,0 C 12,2 C 0,0 km/h (0 Bft)
14/09/2009 21:35 11,9 C 66 % 1017,2 hPa 0,0 mm 0,0 km/h (0 Bft) E-NE 67 0 min 0 W/m 5,8 C 11,9 C 0,0 km/h (0 Bft)
14/09/2009 21:40 11,8 C 67 % 1017,3 hPa 0,0 mm 0,0 km/h (0 Bft) N-NE 22 0 min 0 W/m 5,9 C 11,8 C 0,0 km/h (0 Bft)
14/09/2009 21:45 11,6 C 67 % 1017,2 hPa 0,0 mm 0,0 km/h (0 Bft) NE 45 0 min 0 W/m 5,7 C 11,6 C 0,0 km/h (0 Bft)
14/09/2009 21:50 11,4 C 68 % 1017,2 hPa 0,0 mm 0,0 km/h (0 Bft) N 360 0 min 0 W/m 5,7 C 11,4 C 0,0 km/h (0 Bft)
14/09/2009 21:55 11,2 C 68 % 1017,2 hPa 0,0 mm 0,0 km/h (0 Bft) N 360 0 min 0 W/m 5,5 C 11,2 C 0,0 km/h (0 Bft)
14/09/2009 22:00 11,0 C 68 % 1017,2 hPa 0,0 mm 0,0 km/h (0 Bft) N-NO 337 0 min 0 W/m 5,3 C 11,0 C 0,0 km/h (0 Bft)
14/09/2009 22:05 10,9 C 69 % 1017,2 hPa 0,0 mm 0,0 km/h (0 Bft) N 360 0 min 0 W/m 5,4 C 10,9 C 0,0 km/h (0 Bft)
14/09/2009 22:10 10,8 C 69 % 1017,1 hPa 0,0 mm 0,0 km/h (0 Bft) N 360 0 min 0 W/m 5,3 C 10,8 C 0,0 km/h (0 Bft)
14/09/2009 22:15 10,8 C 70 % 1017,2 hPa 0,0 mm 0,0 km/h (0 Bft) N 360 0 min 0 W/m 5,6 C 10,8 C 0,0 km/h (0 Bft)
14/09/2009 22:20 10,8 C 71 % 1017,1 hPa 0,0 mm 0,0 km/h (0 Bft) N-NE 22 0 min 0 W/m 5,8 C 10,8 C 0,0 km/h (0 Bft)
14/09/2009 22:25 10,8 C 71 % 1017,1 hPa 0,0 mm 0,0 km/h (0 Bft) N 360 0 min 0 W/m 5,8 C 10,8 C 0,0 km/h (0 Bft)
14/09/2009 22:30 10,8 C 71 % 1017,1 hPa 0,0 mm 0,0 km/h (0 Bft) N-NE 22 0 min 0 W/m 5,8 C 10,8 C 0,0 km/h (0 Bft)
14/09/2009 22:35 10,8 C 71 % 1017,2 hPa 0,0 mm 0,0 km/h (0 Bft) N 360 0 min 0 W/m 5,8 C 10,8 C 0,0 km/h (0 Bft)
14/09/2009 22:40 10,8 C 71 % 1017,1 hPa 0,0 mm 0,0 km/h (0 Bft) N-NO 337 0 min 0 W/m 5,8 C 10,8 C 0,0 km/h (0 Bft)
14/09/2009 22:45 10,8 C 71 % 1017,2 hPa 0,0 mm 0,0 km/h (0 Bft) N 360 0 min 0 W/m 5,8 C 10,8 C 0,0 km/h (0 Bft)
14/09/2009 22:50 10,8 C 72 % 1017,2 hPa 0,0 mm 0,0 km/h (0 Bft) N-NO 337 0 min 0 W/m 6,0 C 10,8 C 0,0 km/h (0 Bft)
14/09/2009 22:55 10,8 C 72 % 1017,1 hPa 0,0 mm 0,0 km/h (0 Bft) N-NO 337 0 min 0 W/m 6,0 C 10,8 C 0,0 km/h (0 Bft)
14/09/2009 23:00 10,8 C 72 % 1017,0 hPa 0,0 mm 0,0 km/h (0 Bft) NO 315 0 min 0 W/m 6,0 C 10,8 C 0,0 km/h (0 Bft)
14/09/2009 23:05 10,8 C 73 % 1017,0 hPa 0,0 mm 0,0 km/h (0 Bft) NO 315 0 min 0 W/m 6,2 C 10,8 C 0,0 km/h (0 Bft)
14/09/2009 23:10 10,8 C 73 % 1017,0 hPa 0,0 mm 0,0 km/h (0 Bft) O-NO 292 0 min 0 W/m 6,2 C 10,8 C 0,0 km/h (0 Bft)
14/09/2009 23:15 10,9 C 73 % 1017,0 hPa 0,0 mm 0,0 km/h (0 Bft) O-NO 292 0 min 0 W/m 6,3 C 10,9 C 0,0 km/h (0 Bft)
14/09/2009 23:20 10,9 C 73 % 1017,0 hPa 0,0 mm 0,0 km/h (0 Bft) O-NO 292 0 min 0 W/m 6,3 C 10,9 C 0,0 km/h (0 Bft)
14/09/2009 23:25 10,9 C 73 % 1017,0 hPa 0,0 mm 0,0 km/h (0 Bft) O-NO 292 0 min 0 W/m 6,3 C 10,9 C 0,0 km/h (0 Bft)
14/09/2009 23:30 10,8 C 73 % 1017,0 hPa 0,0 mm 0,0 km/h (0 Bft) O 270 0 min 0 W/m 6,2 C 10,8 C 0,0 km/h (0 Bft)
14/09/2009 23:35 10,8 C 73 % 1017,0 hPa 0,0 mm 0,0 km/h (0 Bft) O-SO 247 0 min 0 W/m 6,2 C 10,8 C 0,0 km/h (0 Bft)
14/09/2009 23:40 10,6 C 73 % 1017,0 hPa 0,0 mm 0,0 km/h (0 Bft) O-SO 247 0 min 0 W/m 6,0 C 10,6 C 0,0 km/h (0 Bft)
14/09/2009 23:45 10,5 C 73 % 1017,1 hPa 0,0 mm 0,0 km/h (0 Bft) O-SO 247 0 min 0 W/m 5,9 C 10,5 C 0,0 km/h (0 Bft)
14/09/2009 23:50 10,5 C 73 % 1017,0 hPa 0,0 mm 0,0 km/h (0 Bft) O-SO 247 0 min 0 W/m 5,9 C 10,5 C 0,0 km/h (0 Bft)
14/09/2009 23:55 10,4 C 74 % 1017,0 hPa 0,0 mm 0,0 km/h (0 Bft) O-SO 247 0 min 0 W/m 6,0 C 10,4 C 0,0 km/h (0 Bft)
15/09/2009 00:00 10,4 C 74 % 1017,0 hPa 0,0 mm 0,0 km/h (0 Bft) O-SO 247 0 min 0 W/m 6,0 C 10,4 C 0,0 km/h (0 Bft)
15/09/2009 00:05 10,4 C 75 % 1016,9 hPa 0,0 mm 0,0 km/h (0 Bft) O-SO 247 0 min 0 W/m 6,2 C 10,4 C 0,0 km/h (0 Bft)
15/09/2009 00:10 10,4 C 75 % 1016,9 hPa 0,0 mm 0,0 km/h (0 Bft) O-SO 247 0 min 0 W/m 6,2 C 10,4 C 0,0 km/h (0 Bft)
15/09/2009 00:15 10,3 C 75 % 1016,9 hPa 0,0 mm 0,0 km/h (0 Bft) SO 225 0 min 0 W/m 6,1 C 10,3 C 0,0 km/h (0 Bft)
15/09/2009 00:20 10,3 C 75 % 1016,9 hPa 0,0 mm 0,0 km/h (0 Bft) N-NO 337 0 min 0 W/m 6,1 C 10,3 C 0,0 km/h (0 Bft)
15/09/2009 00:25 10,3 C 75 % 1016,8 hPa 0,0 mm 0,0 km/h (0 Bft) SO 225 0 min 0 W/m 6,1 C 10,3 C 0,0 km/h (0 Bft)
15/09/2009 00:30 10,3 C 75 % 1016,8 hPa 0,0 mm 0,0 km/h (0 Bft) N 360 0 min 0 W/m 6,1 C 10,3 C 0,0 km/h (0 Bft)
15/09/2009 00:35 10,4 C 75 % 1016,8 hPa 0,0 mm 0,0 km/h (0 Bft) O-NO 292 0 min 0 W/m 6,2 C 10,4 C 0,0 km/h (0 Bft)
15/09/2009 00:40 10,4 C 75 % 1016,8 hPa 0,0 mm 0,0 km/h (0 Bft) O-NO 292 0 min 0 W/m 6,2 C 10,4 C 0,0 km/h (0 Bft)
15/09/2009 00:45 10,4 C 76 % 1016,7 hPa 0,0 mm 0,0 km/h (0 Bft) O-NO 292 0 min 0 W/m 6,4 C 10,4 C 0,0 km/h (0 Bft)
15/09/2009 00:50 10,4 C 75 % 1016,7 hPa 0,0 mm 0,0 km/h (0 Bft) O-NO 292 0 min 0 W/m 6,2 C 10,4 C 0,0 km/h (0 Bft)
15/09/2009 00:55 10,5 C 76 % 1016,7 hPa 0,0 mm 0,0 km/h (0 Bft) NO 315 0 min 0 W/m 6,5 C 10,5 C 0,0 km/h (0 Bft)
15/09/2009 01:00 10,5 C 75 % 1016,7 hPa 0,0 mm 0,0 km/h (0 Bft) N-NO 337 0 min 0 W/m 6,3 C 10,5 C 0,0 km/h (0 Bft)
15/09/2009 01:05 10,5 C 75 % 1016,6 hPa 0,0 mm 0,0 km/h (0 Bft) NO 315 0 min 0 W/m 6,3 C 10,5 C 0,0 km/h (0 Bft)
15/09/2009 01:10 10,5 C 75 % 1016,7 hPa 0,0 mm 0,0 km/h (0 Bft) NO 315 0 min 0 W/m 6,3 C 10,5 C 0,0 km/h (0 Bft)
15/09/2009 01:15 10,4 C 75 % 1016,6 hPa 0,0 mm 0,0 km/h (0 Bft) NO 315 0 min 0 W/m 6,2 C 10,4 C 0,0 km/h (0 Bft)
15/09/2009 01:20 10,4 C 75 % 1016,5 hPa 0,0 mm 0,0 km/h (0 Bft) N-NO 337 0 min 0 W/m 6,2 C 10,4 C 0,0 km/h (0 Bft)
15/09/2009 01:25 10,3 C 76 % 1016,6 hPa 0,0 mm 0,0 km/h (0 Bft) N-NO 337 0 min 0 W/m 6,3 C 10,3 C 0,0 km/h (0 Bft)
15/09/2009 01:30 10,3 C 76 % 1016,6 hPa 0,0 mm 0,0 km/h (0 Bft) NO 315 0 min 0 W/m 6,3 C 10,3 C 0,0 km/h (0 Bft)
15/09/2009 01:35 10,3 C 76 % 1016,6 hPa 0,0 mm 0,0 km/h (0 Bft) NO 315 0 min 0 W/m 6,3 C 10,3 C 0,0 km/h (0 Bft)
15/09/2009 01:40 10,2 C 76 % 1016,5 hPa 0,0 mm 0,0 km/h (0 Bft) O-NO 292 0 min 0 W/m 6,2 C 10,2 C 0,0 km/h (0 Bft)
15/09/2009 01:45 10,1 C 76 % 1016,4 hPa 0,0 mm 0,0 km/h (0 Bft) NO 315 0 min 0 W/m 6,1 C 10,1 C 1,4 km/h (1 Bft)
15/09/2009 01:50 10,1 C 77 % 1016,4 hPa 0,0 mm 0,0 km/h (0 Bft) N 360 0 min 0 W/m 6,3 C 10,1 C 0,0 km/h (0 Bft)
15/09/2009 01:55 10,2 C 77 % 1016,4 hPa 0,0 mm 0,0 km/h (0 Bft) N-NE 22 0 min 0 W/m 6,4 C 10,2 C 0,0 km/h (0 Bft)
15/09/2009 02:00 10,2 C 77 % 1016,4 hPa 0,0 mm 0,0 km/h (0 Bft) N 360 0 min 0 W/m 6,4 C 10,2 C 0,0 km/h (0 Bft)
15/09/2009 02:05 10,3 C 77 % 1016,5 hPa 0,0 mm 0,0 km/h (0 Bft) N 360 0 min 0 W/m 6,4 C 10,3 C 0,0 km/h (0 Bft)
15/09/2009 02:10 10,3 C 77 % 1016,5 hPa 0,0 mm 0,0 km/h (0 Bft) N-NE 22 0 min 0 W/m 6,4 C 10,3 C 0,0 km/h (0 Bft)
15/09/2009 02:15 10,4 C 77 % 1016,5 hPa 0,0 mm 0,0 km/h (0 Bft) NE 45 0 min 0 W/m 6,5 C 10,4 C 0,0 km/h (0 Bft)
15/09/2009 02:20 10,4 C 77 % 1016,5 hPa 0,0 mm 1,1 km/h (1 Bft) N 360 0 min 0 W/m 6,5 C 10,4 C 4,0 km/h (1 Bft)
15/09/2009 02:25 10,6 C 77 % 1016,4 hPa 0,0 mm 0,0 km/h (0 Bft) E-NE 67 0 min 0 W/m 6,7 C 10,6 C 0,0 km/h (0 Bft)
15/09/2009 02:30 10,6 C 77 % 1016,4 hPa 0,0 mm 0,0 km/h (0 Bft) N 360 0 min 0 W/m 6,7 C 10,6 C 0,0 km/h (0 Bft)
15/09/2009 02:35 10,8 C 77 % 1016,3 hPa 0,0 mm 0,0 km/h (0 Bft) N 360 0 min 0 W/m 6,9 C 10,8 C 0,0 km/h (0 Bft)
15/09/2009 02:40 10,9 C 77 % 1016,2 hPa 0,0 mm 0,0 km/h (0 Bft) N-NO 337 0 min 0 W/m 7,0 C 10,9 C 0,0 km/h (0 Bft)
15/09/2009 02:45 10,9 C 77 % 1016,2 hPa 0,0 mm 0,0 km/h (0 Bft) NE 45 0 min 0 W/m 7,0 C 10,9 C 0,0 km/h (0 Bft)
15/09/2009 02:50 11,1 C 78 % 1016,1 hPa 0,3 mm 0,4 km/h (0 Bft) N-NO 337 0 min 0 W/m 7,4 C 11,1 C 3,2 km/h (1 Bft)
15/09/2009 02:55 11,1 C 78 % 1016,1 hPa 0,0 mm 0,0 km/h (0 Bft) N 360 0 min 0 W/m 7,4 C 11,1 C 2,9 km/h (1 Bft)
15/09/2009 03:02 11,1 C 78 % 1016,1 hPa 0,0 mm 0,0 km/h (0 Bft) N 360 0 min 0 W/m 7,4 C 11,1 C 0,0 km/h (0 Bft)
15/09/2009 03:05 11,1 C 78 % 1016,0 hPa 0,0 mm 0,0 km/h (0 Bft) NO 315 0 min 0 W/m 7,4 C 11,1 C 0,0 km/h (0 Bft)
15/09/2009 03:10 11,1 C 78 % 1016,0 hPa 0,0 mm 0,0 km/h (0 Bft) N 360 0 min 0 W/m 7,4 C 11,1 C 0,0 km/h (0 Bft)
15/09/2009 03:15 11,0 C 78 % 1015,9 hPa 0,0 mm 0,0 km/h (0 Bft) N-NO 337 0 min 0 W/m 7,3 C 11,0 C 0,0 km/h (0 Bft)
15/09/2009 03:20 10,9 C 78 % 1015,9 hPa 0,0 mm 0,0 km/h (0 Bft) N 360 0 min 0 W/m 7,2 C 10,9 C 0,0 km/h (0 Bft)
15/09/2009 03:25 10,9 C 78 % 1015,9 hPa 0,0 mm 0,0 km/h (0 Bft) N 360 0 min 0 W/m 7,2 C 10,9 C 0,0 km/h (0 Bft)
15/09/2009 03:30 10,8 C 79 % 1015,9 hPa 0,0 mm 0,0 km/h (0 Bft) N-NO 337 0 min 0 W/m 7,3 C 10,8 C 0,0 km/h (0 Bft)
15/09/2009 03:35 10,8 C 79 % 1015,8 hPa 0,0 mm 0,0 km/h (0 Bft) NO 315 0 min 0 W/m 7,3 C 10,8 C 0,0 km/h (0 Bft)
15/09/2009 03:40 10,7 C 79 % 1015,9 hPa 0,0 mm 0,0 km/h (0 Bft) NO 315 0 min 0 W/m 7,2 C 10,7 C 0,0 km/h (0 Bft)
15/09/2009 03:45 10,6 C 80 % 1015,9 hPa 0,0 mm 0,0 km/h (0 Bft) NO 315 0 min 0 W/m 7,3 C 10,6 C 0,0 km/h (0 Bft)
15/09/2009 03:50 10,6 C 80 % 1015,9 hPa 0,0 mm 0,0 km/h (0 Bft) NO 315 0 min 0 W/m 7,3 C 10,6 C 0,0 km/h (0 Bft)
15/09/2009 03:55 10,6 C 80 % 1016,0 hPa 0,0 mm 0,0 km/h (0 Bft) NO 315 0 min 0 W/m 7,3 C 10,6 C 0,0 km/h (0 Bft)
15/09/2009 04:00 10,6 C 80 % 1016,0 hPa 0,0 mm 0,4 km/h (0 Bft) NO 315 0 min 0 W/m 7,3 C 10,6 C 0,4 km/h (0 Bft)
15/09/2009 04:05 10,7 C 80 % 1016,0 hPa 0,0 mm 1,1 km/h (1 Bft) NO 315 0 min 0 W/m 7,4 C 10,7 C 4,3 km/h (1 Bft)
15/09/2009 04:10 10,8 C 80 % 1016,1 hPa 0,0 mm 0,0 km/h (0 Bft) N 360 0 min 0 W/m 7,5 C 10,8 C 0,0 km/h (0 Bft)
15/09/2009 04:15 10,8 C 80 % 1016,0 hPa 0,0 mm 0,4 km/h (0 Bft) NE 45 0 min 0 W/m 7,5 C 10,8 C 0,4 km/h (0 Bft)
15/09/2009 04:20 10,8 C 81 % 1016,0 hPa 0,0 mm 0,0 km/h (0 Bft) O-NO 292 0 min 0 W/m 7,7 C 10,8 C 0,0 km/h (0 Bft)
15/09/2009 04:25 10,9 C 80 % 1016,0 hPa 0,0 mm 0,4 km/h (0 Bft) N-NO 337 0 min 0 W/m 7,6 C 10,9 C 0,4 km/h (0 Bft)
15/09/2009 04:30 10,9 C 81 % 1016,0 hPa 0,0 mm 0,7 km/h (0 Bft) N-NO 337 0 min 0 W/m 7,8 C 10,9 C 4,3 km/h (1 Bft)
15/09/2009 04:35 10,9 C 81 % 1016,0 hPa 0,0 mm 0,0 km/h (0 Bft) N-NE 22 0 min 0 W/m 7,8 C 10,9 C 0,0 km/h (0 Bft)
15/09/2009 04:40 10,9 C 81 % 1016,0 hPa 0,0 mm 1,8 km/h (1 Bft) N 360 0 min 0 W/m 7,8 C 10,9 C 6,1 km/h (2 Bft)
15/09/2009 04:45 10,9 C 82 % 1015,9 hPa 0,3 mm 1,1 km/h (1 Bft) E-NE 67 0 min 0 W/m 7,9 C 10,9 C 4,3 km/h (1 Bft)
15/09/2009 04:50 10,9 C 82 % 1015,8 hPa 0,0 mm 1,4 km/h (1 Bft) N-NE 22 0 min 0 W/m 7,9 C 10,9 C 1,4 km/h (1 Bft)
15/09/2009 04:55 10,9 C 82 % 1015,7 hPa 0,3 mm 0,0 km/h (0 Bft) N-NE 22 0 min 0 W/m 7,9 C 10,9 C 0,0 km/h (0 Bft)
15/09/2009 05:00 10,8 C 82 % 1015,6 hPa 0,0 mm 0,0 km/h (0 Bft) N-NE 22 0 min 0 W/m 7,9 C 10,8 C 0,0 km/h (0 Bft)
15/09/2009 05:05 10,8 C 83 % 1015,6 hPa 0,0 mm 0,0 km/h (0 Bft) NO 315 0 min 0 W/m 8,0 C 10,8 C 0,0 km/h (0 Bft)
15/09/2009 05:10 10,8 C 83 % 1015,4 hPa 0,0 mm 0,0 km/h (0 Bft) NO 315 0 min 0 W/m 8,0 C 10,8 C 0,0 km/h (0 Bft)
15/09/2009 05:15 10,7 C 83 % 1015,3 hPa 0,0 mm 0,0 km/h (0 Bft) NO 315 0 min 0 W/m 7,9 C 10,7 C 0,0 km/h (0 Bft)
15/09/2009 05:20 10,6 C 83 % 1015,3 hPa 0,0 mm 0,0 km/h (0 Bft) O-NO 292 0 min 0 W/m 7,8 C 10,6 C 0,0 km/h (0 Bft)
15/09/2009 05:25 10,5 C 83 % 1015,2 hPa 0,0 mm 0,0 km/h (0 Bft) O-SO 247 0 min 0 W/m 7,7 C 10,5 C 0,0 km/h (0 Bft)
15/09/2009 05:30 10,5 C 83 % 1015,2 hPa 0,0 mm 0,0 km/h (0 Bft) O-SO 247 0 min 0 W/m 7,7 C 10,5 C 0,0 km/h (0 Bft)
15/09/2009 05:35 10,4 C 84 % 1015,2 hPa 0,0 mm 0,0 km/h (0 Bft) N-NO 337 0 min 0 W/m 7,8 C 10,4 C 0,0 km/h (0 Bft)
15/09/2009 05:40 10,4 C 84 % 1015,1 hPa 0,0 mm 0,0 km/h (0 Bft) N-NO 337 0 min 0 W/m 7,8 C 10,4 C 0,0 km/h (0 Bft)
15/09/2009 05:45 10,3 C 84 % 1015,1 hPa 0,0 mm 0,0 km/h (0 Bft) NO 315 0 min 0 W/m 7,7 C 10,3 C 0,0 km/h (0 Bft)
15/09/2009 05:50 10,3 C 84 % 1015,0 hPa 0,0 mm 0,0 km/h (0 Bft) O-NO 292 0 min 0 W/m 7,7 C 10,3 C 0,0 km/h (0 Bft)
15/09/2009 05:55 10,2 C 84 % 1015,0 hPa 0,0 mm 0,0 km/h (0 Bft) O-NO 292 0 min 0 W/m 7,6 C 10,2 C 0,0 km/h (0 Bft)
15/09/2009 06:00 10,1 C 84 % 1015,0 hPa 0,0 mm 0,0 km/h (0 Bft) O-NO 292 0 min 0 W/m 7,5 C 10,1 C 0,0 km/h (0 Bft)
15/09/2009 06:05 10,1 C 84 % 1015,0 hPa 0,0 mm 0,0 km/h (0 Bft) O-NO 292 0 min 0 W/m 7,5 C 10,1 C 0,0 km/h (0 Bft)
15/09/2009 06:10 9,9 C 84 % 1014,9 hPa 0,0 mm 0,0 km/h (0 Bft) NO 315 0 min 0 W/m 7,3 C 9,9 C 0,0 km/h (0 Bft)
15/09/2009 06:15 9,8 C 84 % 1014,9 hPa 0,0 mm 0,0 km/h (0 Bft) NO 315 0 min 0 W/m 7,2 C 9,8 C 0,0 km/h (0 Bft)
15/09/2009 06:20 9,8 C 84 % 1014,9 hPa 0,0 mm 0,0 km/h (0 Bft) NO 315 0 min 0 W/m 7,2 C 9,8 C 0,0 km/h (0 Bft)
15/09/2009 06:25 9,8 C 85 % 1014,8 hPa 0,0 mm 0,0 km/h (0 Bft) NO 315 0 min 0 W/m 7,4 C 9,8 C 0,0 km/h (0 Bft)
15/09/2009 06:30 9,8 C 85 % 1014,9 hPa 0,0 mm 0,0 km/h (0 Bft) NO 315 0 min 0 W/m 7,4 C 9,8 C 0,0 km/h (0 Bft)
15/09/2009 06:35 9,8 C 85 % 1014,8 hPa 0,0 mm 0,0 km/h (0 Bft) NO 315 0 min 0 W/m 7,4 C 9,8 C 0,0 km/h (0 Bft)
15/09/2009 06:40 9,8 C 86 % 1014,8 hPa 0,0 mm 0,0 km/h (0 Bft) NO 315 0 min 0 W/m 7,6 C 9,8 C 0,0 km/h (0 Bft)
15/09/2009 06:45 9,8 C 86 % 1014,6 hPa 0,0 mm 0,0 km/h (0 Bft) NO 315 0 min 0 W/m 7,6 C 9,8 C 0,0 km/h (0 Bft)
15/09/2009 06:50 9,8 C 86 % 1014,6 hPa 0,0 mm 0,0 km/h (0 Bft) NO 315 0 min 0 W/m 7,6 C 9,8 C 0,0 km/h (0 Bft)
15/09/2009 06:55 9,8 C 86 % 1014,6 hPa 0,0 mm 0,0 km/h (0 Bft) O-NO 292 0 min 0 W/m 7,6 C 9,8 C 0,0 km/h (0 Bft)
15/09/2009 07:00 9,8 C 86 % 1014,6 hPa 0,0 mm 0,0 km/h (0 Bft) O-NO 292 0 min 0 W/m 7,6 C 9,8 C 0,0 km/h (0 Bft)
15/09/2009 07:05 9,8 C 86 % 1014,6 hPa 0,0 mm 0,0 km/h (0 Bft) O-NO 292 0 min 0 W/m 7,6 C 9,8 C 0,0 km/h (0 Bft)
15/09/2009 07:10 9,8 C 86 % 1014,6 hPa 0,0 mm 0,0 km/h (0 Bft) N-NO 337 0 min 0 W/m 7,6 C 9,8 C 0,0 km/h (0 Bft)
15/09/2009 07:15 9,9 C 87 % 1014,5 hPa 0,0 mm 0,0 km/h (0 Bft) N-NO 337 0 min 0 W/m 7,8 C 9,9 C 0,0 km/h (0 Bft)
15/09/2009 07:20 10,0 C 87 % 1014,5 hPa 0,0 mm 0,0 km/h (0 Bft) N-NE 22 0 min 0 W/m 7,9 C 10,0 C 0,0 km/h (0 Bft)
15/09/2009 07:25 10,1 C 87 % 1014,5 hPa 0,0 mm 0,0 km/h (0 Bft) N 360 0 min 0 W/m 8,0 C 10,1 C 0,0 km/h (0 Bft)
15/09/2009 07:30 10,1 C 87 % 1014,5 hPa 0,0 mm 0,0 km/h (0 Bft) N-NO 337 0 min 0 W/m 8,0 C 10,1 C 0,0 km/h (0 Bft)
15/09/2009 07:35 10,1 C 87 % 1014,5 hPa 0,0 mm 0,0 km/h (0 Bft) N-NO 337 0 min 0 W/m 8,0 C 10,1 C 0,0 km/h (0 Bft)
15/09/2009 07:40 10,2 C 87 % 1014,6 hPa 0,0 mm 0,0 km/h (0 Bft) N-NO 337 0 min 0 W/m 8,1 C 10,2 C 0,0 km/h (0 Bft)
15/09/2009 07:45 10,2 C 87 % 1014,6 hPa 0,0 mm 0,0 km/h (0 Bft) O-NO 292 2 min 0 W/m 8,1 C 10,2 C 0,0 km/h (0 Bft)
15/09/2009 07:50 10,2 C 87 % 1014,6 hPa 0,0 mm 0,0 km/h (0 Bft) N-NE 22 2 min 0 W/m 8,1 C 10,2 C 0,0 km/h (0 Bft)
15/09/2009 07:55 10,2 C 87 % 1014,6 hPa 0,0 mm 0,0 km/h (0 Bft) N-NE 22 2 min 0 W/m 8,1 C 10,2 C 0,0 km/h (0 Bft)
15/09/2009 08:00 10,3 C 87 % 1014,8 hPa 0,0 mm 0,0 km/h (0 Bft) N-NE 22 2 min 0 W/m 8,2 C 10,3 C 0,0 km/h (0 Bft)
15/09/2009 08:05 10,3 C 87 % 1014,8 hPa 0,0 mm 0,0 km/h (0 Bft) N 360 2 min 0 W/m 8,2 C 10,3 C 0,0 km/h (0 Bft)
15/09/2009 08:10 10,3 C 87 % 1014,8 hPa 0,0 mm 0,0 km/h (0 Bft) N 360 2 min 0 W/m 8,2 C 10,3 C 0,0 km/h (0 Bft)
15/09/2009 08:15 10,3 C 87 % 1014,8 hPa 0,0 mm 0,0 km/h (0 Bft) N-NO 337 2 min 0 W/m 8,2 C 10,3 C 0,0 km/h (0 Bft)
15/09/2009 08:20 10,4 C 88 % 1014,8 hPa 0,0 mm 0,0 km/h (0 Bft) N 360 2 min 0 W/m 8,5 C 10,4 C 0,0 km/h (0 Bft)
15/09/2009 08:25 10,4 C 88 % 1014,8 hPa 0,0 mm 0,0 km/h (0 Bft) N-NO 337 2 min 0 W/m 8,5 C 10,4 C 0,0 km/h (0 Bft)
15/09/2009 08:30 10,5 C 88 % 1014,8 hPa 0,0 mm 0,0 km/h (0 Bft) N-NO 337 2 min 0 W/m 8,6 C 10,5 C 0,0 km/h (0 Bft)
15/09/2009 08:35 10,6 C 88 % 1014,7 hPa 0,0 mm 0,0 km/h (0 Bft) N 360 2 min 0 W/m 8,7 C 10,6 C 0,0 km/h (0 Bft)
15/09/2009 08:40 10,7 C 88 % 1014,7 hPa 0,0 mm 0,4 km/h (0 Bft) NO 315 2 min 0 W/m 8,8 C 10,7 C 0,4 km/h (0 Bft)
15/09/2009 08:45 10,8 C 88 % 1014,8 hPa 0,0 mm 0,0 km/h (0 Bft) N-NO 337 2 min 0 W/m 8,9 C 10,8 C 3,2 km/h (1 Bft)
15/09/2009 08:50 10,8 C 88 % 1014,8 hPa 0,0 mm 1,4 km/h (1 Bft) N 360 2 min 0 W/m 8,9 C 10,8 C 1,4 km/h (1 Bft)
15/09/2009 08:55 10,9 C 88 % 1014,8 hPa 0,0 mm 0,4 km/h (0 Bft) N-NE 22 2 min 0 W/m 9,0 C 10,9 C 0,4 km/h (0 Bft)
15/09/2009 09:00 10,9 C 88 % 1014,8 hPa 0,0 mm 0,0 km/h (0 Bft) N 360 2 min 0 W/m 9,0 C 10,9 C 0,0 km/h (0 Bft)
15/09/2009 09:05 11,1 C 89 % 1014,9 hPa 0,0 mm 0,0 km/h (0 Bft) N-NO 337 2 min 0 W/m 9,4 C 11,1 C 0,0 km/h (0 Bft)
15/09/2009 09:10 11,1 C 89 % 1014,9 hPa 0,0 mm 0,0 km/h (0 Bft) NE 45 2 min 0 W/m 9,4 C 11,1 C 3,6 km/h (1 Bft)
15/09/2009 09:15 11,2 C 89 % 1015,0 hPa 0,0 mm 0,0 km/h (0 Bft) N-NE 22 2 min 0 W/m 9,5 C 11,2 C 0,0 km/h (0 Bft)
15/09/2009 09:20 11,3 C 89 % 1015,0 hPa 0,0 mm 0,0 km/h (0 Bft) NE 45 2 min 0 W/m 9,6 C 11,3 C 0,0 km/h (0 Bft)
15/09/2009 09:25 11,4 C 89 % 1014,9 hPa 0,0 mm 0,0 km/h (0 Bft) N-NO 337 2 min 0 W/m 9,7 C 11,4 C 0,0 km/h (0 Bft)
15/09/2009 09:30 11,4 C 89 % 1015,0 hPa 0,0 mm 0,0 km/h (0 Bft) N-NE 22 2 min 0 W/m 9,7 C 11,4 C 0,0 km/h (0 Bft)
15/09/2009 09:35 11,5 C 89 % 1014,9 hPa 0,0 mm 0,0 km/h (0 Bft) N-NO 337 2 min 0 W/m 9,8 C 11,5 C 0,0 km/h (0 Bft)
15/09/2009 09:40 11,6 C 89 % 1015,0 hPa 0,0 mm 0,4 km/h (0 Bft) NO 315 2 min 0 W/m 9,8 C 11,6 C 3,2 km/h (1 Bft)
15/09/2009 09:45 11,6 C 88 % 1015,1 hPa 0,0 mm 0,0 km/h (0 Bft) E-NE 67 2 min 0 W/m 9,7 C 11,6 C 2,9 km/h (1 Bft)
15/09/2009 09:50 11,7 C 88 % 1015,1 hPa 0,0 mm 0,7 km/h (0 Bft) N-NO 337 2 min 0 W/m 9,8 C 11,7 C 2,9 km/h (1 Bft)
15/09/2009 09:55 11,8 C 88 % 1015,1 hPa 0,0 mm 0,0 km/h (0 Bft) E-SE 112 2 min 0 W/m 9,9 C 11,8 C 0,0 km/h (0 Bft)
15/09/2009 10:00 11,8 C 88 % 1015,1 hPa 0,0 mm 0,0 km/h (0 Bft) N 360 2 min 0 W/m 9,9 C 11,8 C 0,0 km/h (0 Bft)
15/09/2009 10:05 11,9 C 88 % 1015,2 hPa 0,0 mm 1,4 km/h (1 Bft) N 360 0 min 0 W/m 10,0 C 11,9 C 6,8 km/h (2 Bft)
15/09/2009 10:10 11,9 C 88 % 1015,1 hPa 0,0 mm 0,7 km/h (0 Bft) N-NO 337 0 min 0 W/m 10,0 C 11,9 C 0,7 km/h (0 Bft)
15/09/2009 10:15 11,9 C 88 % 1015,1 hPa 0,0 mm 0,0 km/h (0 Bft) N-NE 22 0 min 0 W/m 10,0 C 11,9 C 0,0 km/h (0 Bft)
15/09/2009 10:20 11,9 C 88 % 1015,1 hPa 0,0 mm 0,4 km/h (0 Bft) N-NO 337 0 min 0 W/m 10,0 C 11,9 C 3,2 km/h (1 Bft)
15/09/2009 10:25 11,9 C 87 % 1015,1 hPa 0,0 mm 0,0 km/h (0 Bft) NO 315 0 min 0 W/m 9,8 C 11,9 C 0,0 km/h (0 Bft)
15/09/2009 10:30 11,9 C 87 % 1015,1 hPa 0,0 mm 0,7 km/h (0 Bft) N-NE 22 0 min 0 W/m 9,8 C 11,9 C 2,9 km/h (1 Bft)
15/09/2009 10:35 11,9 C 87 % 1015,0 hPa 0,0 mm 0,0 km/h (0 Bft) N 360 0 min 0 W/m 9,8 C 11,9 C 0,0 km/h (0 Bft)
15/09/2009 10:40 12,0 C 87 % 1015,1 hPa 0,0 mm 0,0 km/h (0 Bft) NO 315 0 min 0 W/m 9,9 C 12,0 C 0,0 km/h (0 Bft)
15/09/2009 10:45 12,0 C 87 % 1015,1 hPa 0,0 mm 0,0 km/h (0 Bft) E-SE 112 0 min 0 W/m 9,9 C 12,0 C 0,0 km/h (0 Bft)
15/09/2009 10:50 12,1 C 87 % 1015,1 hPa 0,0 mm 0,0 km/h (0 Bft) N 360 0 min 0 W/m 10,0 C 12,1 C 0,0 km/h (0 Bft)
15/09/2009 10:55 12,2 C 87 % 1015,1 hPa 0,0 mm 0,0 km/h (0 Bft) N-NO 337 0 min 0 W/m 10,1 C 12,2 C 4,3 km/h (1 Bft)
15/09/2009 11:00 12,3 C 87 % 1015,1 hPa 0,0 mm 0,0 km/h (0 Bft) N-NO 337 0 min 0 W/m 10,2 C 12,3 C 0,0 km/h (0 Bft)
15/09/2009 11:05 12,4 C 87 % 1015,2 hPa 0,0 mm 0,0 km/h (0 Bft) E-NE 67 0 min 0 W/m 10,3 C 12,4 C 3,6 km/h (1 Bft)
15/09/2009 11:10 12,6 C 86 % 1015,2 hPa 0,0 mm 0,0 km/h (0 Bft) E-NE 67 0 min 0 W/m 10,3 C 12,6 C 0,0 km/h (0 Bft)
15/09/2009 11:15 12,6 C 87 % 1015,1 hPa 0,0 mm 0,0 km/h (0 Bft) NE 45 0 min 0 W/m 10,5 C 12,6 C 0,0 km/h (0 Bft)
15/09/2009 11:20 12,8 C 86 % 1015,2 hPa 0,0 mm 0,0 km/h (0 Bft) E-NE 67 0 min 0 W/m 10,5 C 12,8 C 0,0 km/h (0 Bft)
15/09/2009 11:25 12,9 C 86 % 1015,1 hPa 0,0 mm 0,0 km/h (0 Bft) N 360 0 min 0 W/m 10,6 C 12,9 C 0,0 km/h (0 Bft)
15/09/2009 11:30 13,1 C 85 % 1015,1 hPa 0,0 mm 0,0 km/h (0 Bft) NE 45 0 min 0 W/m 10,6 C 13,1 C 0,0 km/h (0 Bft)
15/09/2009 11:35 13,2 C 85 % 1015,1 hPa 0,0 mm 2,5 km/h (1 Bft) E-NE 67 0 min 0 W/m 10,7 C 13,2 C 4,0 km/h (1 Bft)
15/09/2009 11:40 13,3 C 84 % 1015,1 hPa 0,0 mm 0,0 km/h (0 Bft) N-NE 22 0 min 0 W/m 10,7 C 13,3 C 0,0 km/h (0 Bft)
15/09/2009 11:45 13,3 C 84 % 1015,1 hPa 0,0 mm 0,0 km/h (0 Bft) NE 45 0 min 0 W/m 10,7 C 13,3 C 0,0 km/h (0 Bft)
15/09/2009 11:50 13,4 C 84 % 1015,1 hPa 0,0 mm 0,0 km/h (0 Bft) N-NE 22 0 min 0 W/m 10,8 C 13,4 C 0,0 km/h (0 Bft)
15/09/2009 11:55 13,4 C 84 % 1015,0 hPa 0,0 mm 0,0 km/h (0 Bft) N-NE 22 0 min 0 W/m 10,8 C 13,4 C 0,0 km/h (0 Bft)
15/09/2009 12:00 13,6 C 83 % 1014,8 hPa 0,0 mm 0,0 km/h (0 Bft) NE 45 0 min 0 W/m 10,8 C 13,6 C 0,0 km/h (0 Bft)
15/09/2009 12:05 13,8 C 83 % 1014,8 hPa 0,0 mm 0,7 km/h (0 Bft) NE 45 0 min 0 W/m 11,0 C 13,8 C 0,7 km/h (0 Bft)
15/09/2009 12:10 13,9 C 82 % 1014,7 hPa 0,0 mm 0,4 km/h (0 Bft) E-SE 112 0 min 0 W/m 10,9 C 13,9 C 3,2 km/h (1 Bft)
15/09/2009 12:15 14,0 C 82 % 1014,8 hPa 0,0 mm 0,0 km/h (0 Bft) E 90 0 min 0 W/m 11,0 C 14,0 C 0,0 km/h (0 Bft)
15/09/2009 12:20 14,1 C 82 % 1014,7 hPa 0,0 mm 0,0 km/h (0 Bft) NE 45 0 min 0 W/m 11,1 C 14,1 C 0,0 km/h (0 Bft)
15/09/2009 12:25 14,3 C 81 % 1014,7 hPa 0,0 mm 0,0 km/h (0 Bft) E-NE 67 0 min 0 W/m 11,1 C 14,3 C 2,9 km/h (1 Bft)
15/09/2009 12:30 14,4 C 81 % 1014,6 hPa 0,0 mm 0,0 km/h (0 Bft) N 360 0 min 0 W/m 11,2 C 14,4 C 0,0 km/h (0 Bft)
15/09/2009 12:35 14,5 C 80 % 1014,6 hPa 0,0 mm 0,0 km/h (0 Bft) N 360 0 min 0 W/m 11,1 C 14,5 C 0,0 km/h (0 Bft)
15/09/2009 12:40 14,7 C 80 % 1014,6 hPa 0,0 mm 0,0 km/h (0 Bft) E-NE 67 0 min 0 W/m 11,3 C 14,7 C 0,0 km/h (0 Bft)
15/09/2009 12:45 14,8 C 79 % 1014,6 hPa 0,0 mm 0,0 km/h (0 Bft) E-SE 112 0 min 0 W/m 11,2 C 14,8 C 4,0 km/h (1 Bft)
15/09/2009 12:50 14,8 C 79 % 1014,6 hPa 0,0 mm 0,4 km/h (0 Bft) E 90 0 min 0 W/m 11,2 C 14,8 C 3,2 km/h (1 Bft)
15/09/2009 12:55 14,9 C 78 % 1014,5 hPa 0,0 mm 0,0 km/h (0 Bft) E 90 0 min 0 W/m 11,1 C 14,9 C 0,0 km/h (0 Bft)
15/09/2009 13:00 15,1 C 78 % 1014,5 hPa 0,0 mm 1,1 km/h (1 Bft) NE 45 0 min 0 W/m 11,3 C 15,1 C 3,6 km/h (1 Bft)
15/09/2009 13:05 15,1 C 77 % 1014,4 hPa 0,0 mm 0,4 km/h (0 Bft) N-NO 337 0 min 0 W/m 11,1 C 15,1 C 0,4 km/h (0 Bft)
15/09/2009 13:10 15,2 C 77 % 1014,4 hPa 0,0 mm 0,0 km/h (0 Bft) O-NO 292 0 min 0 W/m 11,2 C 15,2 C 0,0 km/h (0 Bft)
15/09/2009 13:15 15,2 C 77 % 1014,4 hPa 0,0 mm 0,7 km/h (0 Bft) NO 315 0 min 0 W/m 11,2 C 15,2 C 0,7 km/h (0 Bft)
15/09/2009 13:20 15,3 C 76 % 1014,4 hPa 0,0 mm 1,1 km/h (1 Bft) N-NO 337 0 min 0 W/m 11,1 C 15,3 C 1,1 km/h (1 Bft)
15/09/2009 13:25 15,3 C 77 % 1014,3 hPa 0,0 mm 1,1 km/h (1 Bft) N-NO 337 0 min 0 W/m 11,3 C 15,3 C 3,6 km/h (1 Bft)
15/09/2009 13:30 15,4 C 76 % 1014,3 hPa 0,0 mm 0,0 km/h (0 Bft) N-NE 22 0 min 0 W/m 11,2 C 15,4 C 0,0 km/h (0 Bft)
15/09/2009 13:35 15,3 C 76 % 1014,2 hPa 0,0 mm 0,7 km/h (0 Bft) N-NE 22 0 min 0 W/m 11,1 C 15,3 C 0,7 km/h (0 Bft)
15/09/2009 13:40 15,3 C 76 % 1014,2 hPa 0,0 mm 1,8 km/h (1 Bft) N-NO 337 0 min 0 W/m 11,1 C 15,3 C 3,6 km/h (1 Bft)
15/09/2009 13:45 15,3 C 76 % 1014,1 hPa 0,0 mm 0,0 km/h (0 Bft) E 90 0 min 0 W/m 11,1 C 15,3 C 0,0 km/h (0 Bft)
15/09/2009 13:50 15,3 C 75 % 1014,1 hPa 0,0 mm 0,4 km/h (0 Bft) E-NE 67 0 min 0 W/m 10,9 C 15,3 C 3,2 km/h (1 Bft)
15/09/2009 13:55 15,4 C 75 % 1014,1 hPa 0,0 mm 1,1 km/h (1 Bft) E 90 0 min 0 W/m 11,0 C 15,4 C 3,6 km/h (1 Bft)
15/09/2009 14:00 15,4 C 75 % 1014,0 hPa 0,0 mm 0,0 km/h (0 Bft) E-NE 67 0 min 0 W/m 11,0 C 15,4 C 0,0 km/h (0 Bft)
15/09/2009 14:05 15,7 C 74 % 1014,1 hPa 0,0 mm 2,5 km/h (1 Bft) N-NE 22 0 min 0 W/m 11,1 C 15,7 C 7,2 km/h (2 Bft)
15/09/2009 14:10 15,8 C 74 % 1014,1 hPa 0,0 mm 2,9 km/h (1 Bft) E-NE 67 0 min 0 W/m 11,2 C 15,8 C 4,0 km/h (1 Bft)
15/09/2009 14:15 15,8 C 72 % 1014,2 hPa 0,0 mm 0,0 km/h (0 Bft) NE 45 0 min 0 W/m 10,8 C 15,8 C 0,0 km/h (0 Bft)
15/09/2009 14:20 15,8 C 74 % 1014,2 hPa 0,0 mm 0,7 km/h (0 Bft) N-NE 22 0 min 0 W/m 11,2 C 15,8 C 3,2 km/h (1 Bft)
15/09/2009 14:25 15,8 C 74 % 1014,1 hPa 0,0 mm 2,5 km/h (1 Bft) O-NO 292 0 min 0 W/m 11,2 C 15,8 C 7,6 km/h (2 Bft)
15/09/2009 14:30 15,8 C 75 % 1014,2 hPa 0,0 mm 7,6 km/h (2 Bft) N-NO 337 0 min 0 W/m 11,4 C 15,8 C 7,9 km/h (2 Bft)
15/09/2009 14:35 15,8 C 74 % 1014,0 hPa 0,0 mm 0,0 km/h (0 Bft) E-NE 67 0 min 0 W/m 11,2 C 15,8 C 0,0 km/h (0 Bft)
15/09/2009 14:40 15,7 C 74 % 1013,9 hPa 0,0 mm 2,2 km/h (1 Bft) E-NE 67 0 min 0 W/m 11,1 C 15,7 C 4,3 km/h (1 Bft)
15/09/2009 14:45 15,7 C 74 % 1014,0 hPa 0,0 mm 2,9 km/h (1 Bft) NO 315 0 min 0 W/m 11,1 C 15,7 C 9,4 km/h (2 Bft)
15/09/2009 14:50 15,7 C 74 % 1014,0 hPa 0,0 mm 0,7 km/h (0 Bft) N-NO 337 0 min 0 W/m 11,1 C 15,7 C 4,3 km/h (1 Bft)
15/09/2009 14:55 15,8 C 74 % 1013,9 hPa 0,0 mm 0,4 km/h (0 Bft) N 360 0 min 0 W/m 11,2 C 15,8 C 4,3 km/h (1 Bft)
15/09/2009 15:00 15,8 C 74 % 1013,8 hPa 0,0 mm 1,8 km/h (1 Bft) NE 45 0 min 0 W/m 11,2 C 15,8 C 7,9 km/h (2 Bft)
15/09/2009 15:05 15,8 C 74 % 1013,9 hPa 0,0 mm 0,4 km/h (0 Bft) N-NO 337 0 min 0 W/m 11,2 C 15,8 C 0,4 km/h (0 Bft)
15/09/2009 15:10 15,8 C 74 % 1013,8 hPa 0,0 mm 1,8 km/h (1 Bft) N 360 0 min 0 W/m 11,2 C 15,8 C 6,5 km/h (2 Bft)
15/09/2009 15:15 15,8 C 74 % 1013,7 hPa 0,0 mm 1,8 km/h (1 Bft) NE 45 0 min 0 W/m 11,2 C 15,8 C 4,0 km/h (1 Bft)
15/09/2009 15:20 15,6 C 74 % 1013,7 hPa 0,0 mm 0,0 km/h (0 Bft) E-NE 67 0 min 0 W/m 11,0 C 15,6 C 0,0 km/h (0 Bft)
15/09/2009 15:25 15,5 C 75 % 1013,8 hPa 0,0 mm 0,0 km/h (0 Bft) E 90 0 min 0 W/m 11,1 C 15,5 C 0,0 km/h (0 Bft)
15/09/2009 15:30 15,3 C 75 % 1013,8 hPa 0,0 mm 0,0 km/h (0 Bft) N-NO 337 0 min 0 W/m 10,9 C 15,3 C 0,0 km/h (0 Bft)
15/09/2009 15:35 15,2 C 75 % 1013,8 hPa 0,0 mm 0,0 km/h (0 Bft) E-SE 112 0 min 0 W/m 10,8 C 15,2 C 3,2 km/h (1 Bft)
15/09/2009 15:40 14,9 C 75 % 1013,9 hPa 0,0 mm 0,4 km/h (0 Bft) E-SE 112 0 min 0 W/m 10,5 C 14,9 C 0,4 km/h (0 Bft)
_ Min-Heure 07:10 16:40 15:20 - 15:35 - - - - 22:00 07:10 15:30
Minimum _ 9,8 C 51 % 1013,7 hPa - 0,0 km/h (0 Bft) - - - - 5,3 C 9,8 C 0,0 km/h (0 Bft)
_ Max-Heure 18:05 09:40 16:20 04:55 17:05 - - 10:00 15:40 14:30 18:05 19:15
Maximum _ 18,3 C 89 % 1017,7 hPa 0,3 mm 14,0 km/h
N (3 Bft)
- - 2 min 0 W/m 11,4 C 18,3 C 20,2 km/h
E-NE (4 Bft)
Moyenne _ 13,2 C 73 % 1016,0 hPa #0,8 mm 1,8 km/h (1 Bft) N - 0 min 0 W/m 8,2 C 13,2 C 2,9 km/h (1 Bft)
Saint Bonnet de Bellac- Haute Vienne - France